Satellite: IO-26
Catalog number: 22826
Epoch time:      09113.68069057
Element set:     951
Inclination:      098.4253 deg
RA of node:       069.6058 deg
Eccentricity:    0.0009852
Arg of perigee:   063.5340 deg
Mean anomaly:     296.6859 deg
Mean motion:   14.29515141 rev/day
Decay rate:        8.0e-08 rev/day^2
Epoch rev:           81222
Checksum:              321

Satellite: GO-32
Catalog number: 25397
Epoch time:      09112.60086630
Element set:    0876
Inclination:      098.3307 deg
RA of node:       137.9095 deg
Eccentricity:    0.0002114
Arg of perigee:   073.0682 deg
Mean anomaly:     287.0730 deg
Mean motion:   14.23157683 rev/day
Decay rate:        3.7e-07 rev/day^2
Epoch rev:           56022
Checksum:              295

Satellite: NO-44
Catalog number: 26931
Epoch time:      09112.73408748
Element set:    0151
Inclination:      067.0524 deg
RA of node:       207.2046 deg
Eccentricity:    0.0005200
Arg of perigee:   266.0779 deg
Mean anomaly:     093.9706 deg
Mean motion:   14.29553164 rev/day
Decay rate:      -2.10e-06 rev/day^2
Epoch rev:           39465
Checksum:              294

Satellite: SO-50
Catalog number: 27607
Epoch time:      09112.66100650
Element set:    0868
Inclination:      064.5589 deg
RA of node:       193.7302 deg
Eccentricity:    0.0073450
Arg of perigee:   217.7182 deg
Mean anomaly:     141.8759 deg
Mean motion:   14.71429409 rev/day
Decay rate:       -4.6e-07 rev/day^2
Epoch rev:           34050
Checksum:              305

Satellite: CO-55
Catalog number: 27844
Epoch time:      09113.69014065
Element set:     563
Inclination:      098.7143 deg
RA of node:       123.6247 deg
Eccentricity:    0.0009243
Arg of perigee:   305.6193 deg
Mean anomaly:     054.4118 deg
Mean motion:   14.20633134 rev/day
Decay rate:        4.4e-07 rev/day^2
Epoch rev:           30152
Checksum:              276

Satellite: CO-57
Catalog number: 27848
Epoch time:      09113.58964774
Element set:     509
Inclination:      098.7164 deg
RA of node:       122.5875 deg
Eccentricity:    0.0009338
Arg of perigee:   309.9970 deg
Mean anomaly:     050.0379 deg
Mean motion:   14.20435598 rev/day
Decay rate:        1.1e-07 rev/day^2
Epoch rev:           30147
Checksum:              337

Satellite: AO-51
Catalog number: 28375
Epoch time:      09112.95658019
Element set:    0372
Inclination:      098.0548 deg
RA of node:       125.7778 deg
Eccentricity:    0.0083678
Arg of perigee:   293.6187 deg
Mean anomaly:     065.6226 deg
Mean motion:   14.40639074 rev/day
Decay rate:        1.0e-08 rev/day^2
Epoch rev:           25300
Checksum:              326

Satellite: CO-56
Catalog number: 28941
Epoch time:      09113.48570857
Element set:      17
Inclination:      098.1341 deg
RA of node:       277.9387 deg
Eccentricity:    0.0098350
Arg of perigee:   338.1183 deg
Mean anomaly:     021.5882 deg
Mean motion:   15.78908395 rev/day
Decay rate:     3.6668e-04 rev/day^2
Epoch rev:           17860
Checksum:              362

Satellite: CP3
Catalog number: 31128
Epoch time:      09112.61063158
Element set:    0612
Inclination:      097.9935 deg
RA of node:       168.2393 deg
Eccentricity:    0.0104048
Arg of perigee:   097.6015 deg
Mean anomaly:     263.7025 deg
Mean motion:   14.52035384 rev/day
Decay rate:       -4.6e-07 rev/day^2
Epoch rev:           10683
Checksum:              288

Satellite: CP4
Catalog number: 31132
Epoch time:      09113.68881891
Element set:     589
Inclination:      097.9985 deg
RA of node:       172.9985 deg
Eccentricity:    0.0086893
Arg of perigee:   083.3046 deg
Mean anomaly:     277.8029 deg
Mean motion:   14.55199504 rev/day
Decay rate:        3.6e-07 rev/day^2
Epoch rev:           10710
Checksum:              351

Satellite: CO-65
Catalog number: 32785
Epoch time:      09113.75440660
Element set:     346
Inclination:      097.9504 deg
RA of node:       178.1595 deg
Eccentricity:    0.0013988
Arg of perigee:   205.5294 deg
Mean anomaly:     154.5224 deg
Mean motion:   14.81471568 rev/day
Decay rate:       1.90e-06 rev/day^2
Epoch rev:            5338
Checksum:              328

Satellite: SOHLA-1
Catalog number: 33496
Epoch time:      09113.70692883
Element set:     278
Inclination:      098.0319 deg
RA of node:       223.8798 deg
Eccentricity:    0.0008015
Arg of perigee:   095.7972 deg
Mean anomaly:     264.4147 deg
Mean motion:   14.69430374 rev/day
Decay rate:        8.6e-07 rev/day^2
Epoch rev:            1327
Checksum:              329

/EX
SB KEPS @ AMSAT  $ORB09113.W
Orbital Elements  09113.WEATHER

HR AMSAT ORBITAL ELEMENTS FOR WEATHER SATELLITES
FROM WA5QGD FORT WORTH,TX April 23, 2009
Send Subscribe/unsubscribe to KEPS at 
http://www.amsat.org/mailman/listinfo/keps
BID: ORB09113.W
TO ALL RADIO AMATEURS BT

Satellite: NOAA-10
Catalog number: 16969
Epoch time:      09112.63962598
Element set:    0585
Inclination:      098.6955 deg
RA of node:       139.5793 deg
Eccentricity:    0.0012485
Arg of perigee:   003.3944 deg
Mean anomaly:     356.7304 deg
Mean motion:   14.27384420 rev/day
Decay rate:       -3.8e-07 rev/day^2
Epoch rev:           17558
Checksum:              345

